Home > Weather > Ballia > Past weeks

Flag for India Past Weather in Ballia, Uttar Pradesh, India — Yesterday and Last 2 Weeks

Now
93 °F

Light rain. Broken clouds.


Feels Like: 110 °F
Forecast: 83 / 106 °F
Wind: 9 mph from Southeast

Location: Patna Airport

Current Time: Jun 30, 2016 at 2:22:01 PM

Latest Report: Jun 30, 2016 at 1:30 PM


Visibility: 3 mi

Pressure: 29.50 "Hg

Humidity: 63%

Dew Point: 79 °F

Location of BalliaLocation

Past Weather in Ballia — Graph

°F

Ballia Temperature Yesterday

Maximum temperature yesterday: 97 °F (at 2:00 PM)
Minimum temperature yesterday: 84 °F (at 5:30 AM)
Average temperature yesterday: 93 °F

High & Low Weather Summary for the Past Weeks

 TemperatureHumidityPressure
High100 °F (Jun 20, 2:00 PM)100% (Jun 21, 8:00 PM)29.68 "Hg (Jun 21, 8:00 PM)
Low75 °F (Jun 18, 5:30 AM)44% (Jun 15, 2:30 PM)29.39 "Hg (Jun 15, 2:00 PM)
Average90 °F72%29.55 "Hg
* Reported Jun 15 12:30 PM — Jun 30 1:00 PM, Ballia, Weather by CustomWeather, © 2016

Note: Actual official high and low records may vary slightly from our data, if they occured in-between our weather recording intervals... More about our weather records

Advertising

Ballia Weather History for the Previous 24 Hours

Scroll right to see more
 ConditionsComfort  
Time TempWeatherWind HumidityBarometerVisibility
1:00 PM
Thu, Jun 30
95 °FBroken clouds.12 mph63%29.50 "Hg3 mi
12:30 PM95 °FBroken clouds.N/A63%29.53 "Hg3 mi
12:00 PM95 °FBroken clouds.6 mph63%29.53 "Hg3 mi
11:30 AM95 °FScattered clouds.9 mph63%29.53 "Hg3 mi
11:00 AM93 °FPartly sunny.7 mph67%29.56 "Hg3 mi
10:30 AM91 °FScattered clouds.12 mph71%29.56 "Hg3 mi
9:30 AM90 °FBroken clouds.9 mph71%29.56 "Hg2 mi
9:00 AM90 °FBroken clouds.7 mph71%29.56 "Hg2 mi
8:30 AM90 °FScattered clouds.9 mph71%29.56 "Hg2 mi
8:00 AM90 °FBroken clouds.6 mph71%29.56 "Hg2 mi
7:30 AM88 °FBroken clouds.9 mph75%29.56 "Hg2 mi
7:00 AM86 °FBroken clouds.7 mph79%29.56 "Hg1 mi
6:30 AM86 °FBroken clouds.7 mph79%29.50 "Hg1 mi
5:30 AM86 °FPartly cloudy.7 mph79%29.47 "Hg1 mi
9:00 PM
Wed, Jun 29
91 °FPassing clouds.7 mph71%29.53 "Hg2 mi
8:30 PM91 °FPassing clouds.7 mph71%29.53 "Hg2 mi
8:00 PM93 °FPassing clouds.7 mph59%29.53 "Hg2 mi
7:30 PM93 °FPassing clouds.7 mph59%29.53 "Hg3 mi
7:00 PM93 °FScattered clouds.7 mph59%29.53 "Hg3 mi
6:30 PM93 °FScattered clouds.6 mph59%29.50 "Hg3 mi
6:00 PM95 °FScattered clouds.7 mph56%29.50 "Hg3 mi
5:30 PM95 °FScattered clouds.12 mph56%29.50 "Hg3 mi
5:00 PM95 °FScattered clouds.6 mph56%29.50 "Hg3 mi
4:30 PM97 °FScattered clouds.12 mph53%29.50 "Hg3 mi
4:00 PM97 °FScattered clouds.9 mph53%29.50 "Hg3 mi
3:30 PM97 °FScattered clouds.9 mph53%29.50 "Hg3 mi
3:00 PM97 °FScattered clouds.9 mph53%29.50 "Hg3 mi
2:30 PM97 °FScattered clouds.9 mph53%29.53 "Hg3 mi
2:00 PM97 °FScattered clouds.15 mph56%29.53 "Hg3 mi
Weather by CustomWeather, © 2016

See weather overviewHow to use our weather pages